STARLINK-1866 (47152 NORAD) Tracking and Keplerian Element Data
This shows tracking and keplerian element data for the satellite.
Feedback or suggestion? Click here.
Element | Value |
Catalog | 47152 |
Name | STARLINK-1866 |
Epoch Orbit | 968 |
Epoch Day | 21.16668981 |
Epoch Year | 2021 |
RAAN | 73.8086 |
Inclination | 53.0543 |
Eccentricity | 0.0001269 |
Argument of Perigee | 66.9839 |
Mean Anonmoly | 221.6556 |
Mean Motion | 15.37743342 |
Decay Rate | -0.01079929 |
L1 | 1 47152U 20088AG 21021.16668981 -.01079929 00000-0 -31285-1 0 9997 |
L2 | 2 47152 53.0543 73.8086 0001269 66.9839 221.6556 15.37743342 9681 |
Live tracking and technical data element details for STARLINK-1866 (NORAD 47152). STARLINK-1866 can be tracked NOW for your location showing map with azimuth and elevation plus other details from your city location.
Track the satellite on the map from your city or location and see movement details for azimuth, elevation, latitude, longitude, range, height, and movement on the map or in text.
IsCatalogInMostPopularTable: catalog: 47152, numindb: 20
Update: records affected: 1
GetName: 47152 STARLINK-1866
Hit Count: updated at: Fri, 22 Jan 2021 15:01:46 GMT